Regional Weather Roundup
Issued by NWS

Home | Current Version | Previous Version | Text Only | Print | Product List | Glossary On
Versions: 1 2 3 4 5 6 7 8 9 10 11 12 13 14 15 16 17 18 19 20 21 22 23 24 25 26 27 28 29 30 31 32 33 34 35 36 37 38 39 40 41 42 43 44 45 46 47 48 49 50
000
ASHW40 PHFO 311632
RWRHI

WEATHER ROUNDUP FOR HAWAII
NATIONAL WEATHER SERVICE HONOLULU HI
600 AM HST TUE MAY 31 2016

THIS IS AN AUTOMATED REPORT THAT HAS NOT BEEN QUALITY CONTROLLED.

NOTE..."FAIR" INDICATES FEW OR NO CLOUDS BELOW 12,000 FEET WITH NO
SIGNIFICANT WEATHER AND/OR OBSTRUCTIONS TO VISIBILITY.

* - THESE SITES REPORT LIMITED FIELDS

HIZ001>004-311700-
KAUAI-NIIHAU-

CITY           SKY/WX    TMP DP  RH WIND       PRES   REMARKS
LIHUE APT      CLOUDY    70  63  78 N10       30.04R
PORT ALLEN*      N/A     68 N/A N/A NE6         N/A
POIPU*           N/A     72 N/A N/A NE6G14      N/A
PRINCEVILLE*     N/A     70 N/A N/A SW2         N/A
KOKOLE POINT*  NOT AVBL
MOLOAA DAIRY*    N/A     72  63  73 NE2G12      N/A
WAIMEA HTS*    NOT AVBL
PUU OPAE*      NOT AVBL
PUU LUA*       NOT AVBL
MAKAHA RIDGE*    N/A     64  59  82 NE6G16      N/A
$$

HIZ005>011-311700-
OAHU-

CITY           SKY/WX    TMP DP  RH WIND       PRES   REMARKS
HONOLULU       PTCLDY    72  66  81 N6        29.99R
KALAELOA         N/A     73  65  75 NE9       30.00R
KANEOHE MCB    CLOUDY    73  68  84 NE12      29.99R
WHEELER FIELD  FAIR      67  67  97 NW7       30.00S
BELLOWS*         N/A    N/A N/A N/A NE13G21     N/A
KAHUKU*          N/A    N/A N/A N/A VRB6G12     N/A
WHEELER*       NOT AVBL
WAIANAE HARBOR NOT AVBL
DILLINGHAM*      N/A     70  64  83 MISG        N/A
KAHUKU TRN*      N/A     68  64  88 CALM        N/A
KAWAILOA*        N/A     64  63  94 NE6G16      N/A
KII*             N/A     73  66  78 NE12G18     N/A
MAKUA RANGE*     N/A     72  64  78 E13G22      N/A
OAHU FOREST NW NOT AVBL
SCHOFIELD BRK*   N/A     66  64  94 MISG        N/A
SCHOFIELD S*   NOT AVBL
WAIANAE VLY*   NOT AVBL
KUAOKALA*      NOT AVBL
HONOULIUULI*   NOT AVBL
MOKUOLOE IS*   NOT AVBL
PALEHUA*       NOT AVBL
WAIAWA PHB*    NOT AVBL
$$

HIZ012>013-311700-
MOLOKAI-

CITY           SKY/WX    TMP DP  RH WIND       PRES   REMARKS
MOLOKAI AIRPT  MOCLDY    72  66  83 NE8       30.01R
KALAUPAPA      NOT AVBL
MAKAPULAPAI*     N/A     72  68  88 NE16G22     N/A
MOLOKAI 1*     NOT AVBL
PUU ALII*        N/A     57  57 100 N1          N/A
$$

HIZ016-311700-
KAHOOLAWE-

CITY           SKY/WX    TMP DP  RH WIND       PRES   REMARKS
KAHOOLAWE*       N/A     66 N/A N/A NE1         N/A
HAKIOAWA*        N/A     83  81  94 MISG      30.41  HX  97
HONOKANAIA*      N/A     72  64  76 N10G16    29.91
KANELOA*         N/A     70  64  83 N8G14     30.03R
KEALIALALO*    NOT AVBL
LUA MAKIKA*    NOT AVBL
$$

HIZ014>015-311700-
LANAI-

CITY           SKY/WX    TMP DP  RH WIND       PRES   REMARKS
LANAI CITY     FAIR      67  63  87 NE9       30.03R
LANAI 1*       NOT AVBL
$$

HIZ017>028-311700-
MAUI-

CITY           SKY/WX    TMP DP  RH WIND       PRES   REMARKS
KAHULUI        LGT RAIN  72  69  90 CALM      30.00R
KAPALUA-W MAUI PTCLDY    72  66  83 NE12      30.00
HANA AIRPORT   NOT AVBL
HANA*            N/A     70 N/A N/A SW3         N/A
HALEAKALA SUMM   N/A     46  23  39 NW6G25      N/A
MAALAEA BAY*     N/A     73 N/A N/A N10G16      N/A
HALEAKALA*     NOT AVBL
KAUPO GAP*     NOT AVBL
KULA 1*          N/A     48  46  93 E5          N/A
$$

HIZ023>026-311700-
BIG ISLAND OF HAWAII COAST AND LOWER SLOPES-

CITY           SKY/WX    TMP DP  RH WIND       PRES   REMARKS
KAILUA KONA    PTCLDY    72  65  78 NE6       29.96R
HILO           PTCLDY    68  60  75 SW7       29.98R
HONOKAA*         N/A     61 N/A N/A VRB1        N/A
KAWAIHAE MWT*    N/A     73 N/A N/A NE7         N/A
KAWAIHAE*        N/A     73 N/A N/A NE3       29.97R
SOUTH POINT*     N/A     68 N/A N/A NW7         N/A
UPOLU AIRPORT*   N/A    N/A N/A N/A SE8         N/A
KAMUELA*       NOT AVBL
HAKALAU*         N/A     43  41  93 SW3         N/A
KALOKO-HONOKO*   N/A     72  64  78 CALM      29.96R
PALI 2*          N/A     61  55  82 S7G14       N/A
KEALAKOMO*       N/A     73  63  68 E3G14       N/A
KAUPULEHU*     NOT AVBL
KAPAPALA*        N/A     64  63  97 NW3         N/A
LOWER KAHUKU*    N/A     61 -40   1 CALM        N/A
PUHE CS*         N/A     72  59  64 E5G10       N/A
PUHO CS*         N/A     69  60  72 NE3G9       N/A
PTA KEAMUKU*     N/A     55  50  82 CALM        N/A
WAIKOLOA*      NOT AVBL
$$

HIZ027>028-311700-
BIG ISLAND OF HAWAII INTERIOR AND SUMMMITS-

CITY           SKY/WX    TMP DP  RH WIND       PRES   REMARKS
BRADSHAW FIELD CLOUDY    46  41  83 SE3       30.28R
MK VISITOR CEN   N/A     45  12  26 N3          N/A
MAUNA KEA*       N/A     41   7  24 VRB15       N/A
MAUNA LOA*       N/A     45   9  23 MISG        N/A
MAUNA LOA 1*   NOT AVBL
PTA KIPUKA*      N/A     70  70 100 E3          N/A
PTA RANGE 17*    N/A     48  41  76 E3          N/A
PTA WEST*        N/A     50  46  87 SE10        N/A
NENE CABIN*      N/A     45  41  87 N5          N/A
AHUMOA*        NOT AVBL
PTA PORTABLE*  NOT AVBL
PUU MALI*        N/A     52  45  76 NW1G8       N/A
$$

HIC003-311700-
NORTHWEST ISLANDS-

CITY           SKY/WX    TMP DP  RH WIND       PRES   REMARKS
MIDWAY ISLAND  MOCLDY    72  68  88 SE9       30.12S
MIDWAY NOS*      N/A     73 N/A N/A MISG      30.11R
FRENCH FRIGATE NOT AVBL
$$

PHZ110>124-180-311700-
BUOY REPORTS

STATION/POSITION TIME  TEMP    WIND        PRES    WAVE   SWELL
                       AIR SEA DIR/SP/G            HT/PER HT/DIR
                 (UTC) (F)     (DEG/KT/KT) (MB)    (FT/S) (FT/D)
BUOY 51001       1600   78 80   80/  8/ 12 1016.5R
BUOY 51101       1550   74 78   50/ 16/ 19 1019.0R   6/ 6   3/ 80
BUOY 51100       NOT AVBL
BUOY 51002       1550   77 79   70/ 10/ 12 1014.0R   5/14   5/170
BUOY 51003       1550   77 80   50/ 12/ 14 1014.8R   5/12   5/140
BUOY 51004       1550   76 79   50/ 12/ 14 1014.3R   5/14   5/160
BARBERS PT BUOY  NOT AVBL
WAIMEA BAY BUOY  1604      78                N/A     5/ 7   2/320
KAILUA BAY BUOY  1611      79                N/A     6/ 8   2/140
LANAI BUOY       1615      79                N/A     3/13   2/180
BARBERS PT 2     1603      79                N/A     4/12   3/220
PAUWELA MAUI     1609      79                N/A     5/ 7   2/320
HILO             1612      79                N/A     4/13   2/ 30
KANEOHE BAY BUOY 1606      78                N/A     5/ 7   2/350
HANALEI KAUAI    NOT AVBL
KAHULUI HARBOR   1600   73 80  100/  3/  5 1015.4R
HONOLULU HARBOR  1600   74 78   90/  2/  7 1016.3R
KILO NALU        NOT AVBL
HILO HARBOR      1600   68 78  200/  4/  7 1014.9R
MOKUOLOE         1500   74 81   30/ 10/ 12 1015.8R
NAWILIWILI       1600   70 80  270/  5/  6 1016.8R
WHOTS BUOY       NOT AVBL
BUOY 51028       NOT AVBL
$$

......................KEY........................................
  SKY/WX - SKY CONDITIONS/PRESENT WEATHER
  TMP    - TEMPERATURE IN FAHRENHEIT
  DWPT   - DEWPOINT IN FAHRENHEIT
  RH     - RELATIVE HUMIDITY IN PERCENT
  WIND   - DIRECTION AND SPEED /MPH FOR ISLANDS...KTS FOR BUOYS/
  PRES   - MEAN SEA LEVEL PRESSURE IN INCHES OF HG
  VSB    - VISIBILITY IN MILES
  HX     - HEAT INDEX
  WCI    - WIND CHILL INDEX
  VRB    - VARIABLE WIND DIRECTION
  N/A    - NOT AVAILABLE




USA.gov is the U.S. government's official web portal to all federal, state and local government web resources and services.